This demonstration page uses our WeatherBlox Daily Observations layout. Learn more.

Left ArrowRight Arrow

Hourly Observations for October 2, 2021

Temp ( °F °C ) Dew Point ( °F °C ) Humidity (%) Winds ( mph kmh ) Pressure ( in mb ) Visibility ( mi km ) Precip ( " mm )
12:53 am 00:53 Clear 62 16.7 37 2.8 40 40 N N/A 29.99 1016 10 16 N/A
1:53 am 01:53 Clear 59 15 37 2.8 44 44 N N/A 30.00 1016 10 16 N/A
2:53 am 02:53 Clear 57 13.9 38 3.3 49 49 N N/A 30.00 1016 10 16 N/A
3:53 am 03:53 Clear 56 13.3 36 2.2 47 47 N N/A 29.99 1016 10 16 N/A
4:53 am 04:53 Clear 55 12.8 36 2.2 49 49 N N/A 29.99 1016 10 16 N/A
5:53 am 05:53 Clear 52 11.1 35 1.7 53 53 N N/A 30.00 1016 10 16 N/A
6:53 am 06:53 Clear 52 11.1 36 2.2 55 55 N N/A 30.01 1016 10 16 N/A
7:53 am 07:53 Sunny 55 12.8 38 3.3 53 53 N N/A 30.02 1017 10 16 N/A
8:53 am 08:53 Sunny 65 18.3 40 4.4 40 40 N N/A 30.02 1017 10 16 N/A
9:53 am 09:53 Sunny 74 23.3 41 5 31 31 N N/A 30.01 1016 10 16 N/A
10:53 am 10:53 Sunny 82 27.8 42 5.6 24 24 N N/A 30.00 1016 10 16 N/A
11:53 am 11:53 Sunny 87 30.6 40 4.4 19 19 VRB 3 6 29.98 1015 10 16 N/A
12:53 pm 12:53 Sunny 90 32.2 42 5.6 19 19 SSE 7 11 29.96 1015 10 16 N/A
1:53 pm 13:53 Sunny 92 33.3 38 3.3 15 15 WSW 5 7 29.93 1014 10 16 N/A
2:53 pm 14:53 Sunny 94 34.4 20 -6.7 7 7 SSW 7 11 29.91 1013 10 16 N/A
3:53 pm 15:53 Sunny 95 35 23 -5 7 7 VRB 6 9 29.89 1012 10 16 N/A
4:53 pm 16:53 Sunny 94 34.4 26 -3.3 9 9 SSE 5 7 29.89 1012 10 16 N/A
5:53 pm 17:53 Sunny 93 33.9 29 -1.7 10 10 SSE 7 11 29.88 1012 10 16 N/A
6:53 pm 18:53 Clear 84 28.9 33 0.6 16 16 S 6 9 29.88 1012 10 16 N/A
7:53 pm 19:53 Clear 81 27.2 35 1.7 19 19 S 5 7 29.90 1012 10 16 N/A
8:53 pm 20:53 Clear 73 22.8 36 2.2 26 26 N N/A 29.92 1013 10 16 N/A
9:53 pm 21:53 Clear 70 21.1 34 1.1 27 27 N N/A 29.94 1014 10 16 N/A
10:53 pm 22:53 Clear 67 19.4 35 1.7 31 31 N N/A 29.96 1015 10 16 N/A
11:53 pm 23:53 Clear 64 17.8 34 1.1 33 33 N 6 9 29.97 1015 10 16 N/A

Powered by AerisWeather